Weather History for KIND - July, 2014

Change the Weather History Date:

Friday, July 4, 2014

  Actual Average Record
Temperature  
Mean Temperature 67 °F 76 °F  
Max Temperature 79 °F 85 °F 103 °F (1911)
Min Temperature 54 °F 66 °F 48 °F (1968)
Degree Days  
Heating Degree Days 0 0  
Month to date heating degree days 0 0  
Since 1 June heating degree days 2 16  
Since 1 July heating degree days 0 0  
Cooling Degree Days 2 11  
Month to date cooling degree days 21 41  
Year to date cooling degree days 363 351  
Since 1 June cooling degree days 259 267  
Growing Degree Days 16 (Base 50)    
Moisture  
Dew Point 49 °F    
Average Humidity 63    
Maximum Humidity 89    
Minimum Humidity 36    
Precipitation  
Precipitation 0.00 in 0.15 in 2.40 in (1957)
Month to date precipitation 0.13 0.62  
Year to date precipitation 24.60 22.27  
Snow  
Snow 0.00 in 0.00 in 0.00 in ()
Month to date snowfall 0.0 0.0  
Since 1 June snowfall 0.0 0.0  
Since 1 July snowfall 0.0 0.0  
Snow Depth 0.00 in    
Sea Level Pressure  
Sea Level Pressure 30.26 in    
Wind  
Wind Speed 6 mph (North)    
Max Wind Speed 14 mph    
Max Gust Speed 22 mph    
Visibility 10 miles    
Events      
T = Trace of Precipitation, MM = Missing Value Source: NWS Daily Summary

Daily Weather History Graph

Daily Weather History Graph

Search for Another Location

Airport or City:

Trip Planner

Search our weather history database for the weather conditions in past years. The results will help you decide how hot, cold, wet, or windy it might be!

Date:

Astronomy

Jul. 04, 2014 Rise Set
Actual Time 6:22 AM EDT 9:16 PM EDT
Civil Twilight 5:50 AM EDT 9:48 PM EDT
Nautical Twilight 5:09 AM EDT 10:29 PM EDT
Astronomical Twilight 4:22 AM EDT 11:16 PM EDT
Moon 1:16 PM EDT (7/4) 12:39 AM EDT (7/4)
Length of Visible Light 15h 58m
Length of Day
14h 53m
Waxing Crescent, 42% of the Moon is Illuminated
Jul 4
Waxing Crescent
Jul 5
First Quarter
Jul 12
Full
Jul 18
Last Quarter
Jul 26
New

Hourly Weather History & Observations

Time (EDT) Temp. Dew Point Humidity Pressure Visibility Wind Dir Wind Speed Gust Speed Precip Events Conditions
12:54 AM 62.1 °F 53.1 °F 72% 30.19 in 10.0 mi NNW 3.5 mph - N/A   Partly Cloudy
1:54 AM 60.1 °F 54.0 °F 80% 30.20 in 9.0 mi NW 3.5 mph - N/A   Scattered Clouds
2:54 AM 59.0 °F 53.1 °F 81% 30.20 in 10.0 mi NNW 4.6 mph - N/A   Partly Cloudy
3:54 AM 57.9 °F 51.1 °F 78% 30.21 in 10.0 mi NNW 5.8 mph - N/A   Clear
4:54 AM 55.9 °F 50.0 °F 80% 30.22 in 10.0 mi NW 4.6 mph - N/A   Clear
5:54 AM 54.0 °F 50.0 °F 86% 30.24 in 10.0 mi NNW 6.9 mph - N/A   Clear
6:54 AM 54.0 °F 48.9 °F 83% 30.26 in 10.0 mi NNW 6.9 mph - N/A   Clear
7:54 AM 60.1 °F 48.9 °F 67% 30.27 in 10.0 mi North 4.6 mph - N/A   Clear
8:54 AM 64.9 °F 46.0 °F 50% 30.29 in 10.0 mi North 5.8 mph - N/A   Clear
9:54 AM 69.1 °F 46.0 °F 44% 30.29 in 10.0 mi NNE 8.1 mph - N/A   Clear
10:54 AM 70.0 °F 45.0 °F 41% 30.30 in 10.0 mi NE 9.2 mph - N/A   Clear
11:54 AM 73.0 °F 46.0 °F 38% 30.30 in 10.0 mi North 12.7 mph - N/A   Clear
12:54 PM 73.9 °F 48.9 °F 41% 30.30 in 10.0 mi North 10.4 mph - N/A   Partly Cloudy
1:54 PM 75.0 °F 48.9 °F 40% 30.29 in 10.0 mi NE 10.4 mph - N/A   Partly Cloudy
2:54 PM 75.0 °F 48.0 °F 38% 30.28 in 10.0 mi Calm Calm - N/A   Scattered Clouds
3:54 PM 77.0 °F 48.0 °F 36% 30.27 in 10.0 mi NNE 4.6 mph - N/A   Scattered Clouds
4:54 PM 78.1 °F 50.0 °F 37% 30.27 in 10.0 mi NNE 8.1 mph 21.9 mph N/A   Scattered Clouds
5:54 PM 77.0 °F 50.0 °F 39% 30.26 in 10.0 mi Variable 6.9 mph - N/A   Scattered Clouds
6:54 PM 73.9 °F 48.9 °F 41% 30.25 in 10.0 mi North 5.8 mph - N/A   Scattered Clouds
7:54 PM 75.0 °F 48.0 °F 38% 30.26 in 10.0 mi ENE 5.8 mph - N/A   Scattered Clouds
8:54 PM 72.0 °F 48.9 °F 44% 30.26 in 10.0 mi NNE 5.8 mph - N/A   Scattered Clouds
9:54 PM 70.0 °F 50.0 °F 49% 30.27 in 10.0 mi NNE 4.6 mph - N/A   Scattered Clouds
10:54 PM 68.0 °F 51.1 °F 55% 30.28 in 6.0 mi NNE 5.8 mph - N/A   Haze
11:54 PM 66.9 °F 50.0 °F 54% 30.28 in 7.0 mi NNE 4.6 mph - N/A   Clear